Regional Weather Roundup
Issued by NWS

Home | Current Version | Previous Version | Text Only | Print | Product List | Glossary On
Versions: 1 2 3 4 5 6 7 8 9 10 11 12 13 14 15 16 17 18 19 20 21 22 23 24 25 26 27 28 29 30 31 32 33 34 35 36 37 38 39 40 41 42 43 44 45 46 47 48 49 50
000
ASUS43 KTOP 211508
RWRKS

WEATHER ROUNDUP FOR KANSAS
NATIONAL WEATHER SERVICE GOODLAND KS
1000 AM CDT FRI JUL 21 2017

NOTE:  "FAIR" INDICATES FEW OR NO CLOUDS BELOW 12,000 FEET WITH NO
SIGNIFICANT WEATHER AND/OR OBSTRUCTIONS TO VISIBILITY.

KSZ001>006-013>018-027>032-041>047-211600-
NORTHWEST KANSAS

CITY           SKY/WX    TMP DP  RH WIND       PRES   REMARKS
GOODLAND       SUNNY     83  65  54 NW8       29.98R
HAYS           SUNNY     90  63  40 SW15      29.90S
HILL CITY      SUNNY     89  61  38 SW10      29.89F
RUSSELL        SUNNY     90  64  42 S20G25    29.88F
$$

KSZ061>065-074>080-084>089-211600-
SOUTHWEST KANSAS

CITY           SKY/WX    TMP DP  RH WIND       PRES   REMARKS
DODGE CITY     SUNNY     87  60  40 SW16      29.96S
ELKHART          N/A     84  52  33 SW12        N/A
GARDEN CITY    SUNNY     84  59  42 SW10      29.97S
LIBERAL        SUNNY     86  58  38 SW20      30.00S
PRATT          SUNNY     87  61  41 SW21      29.95F
$$

KSZ066>073-081>083-090>101-211600-
SOUTHEAST KANSAS

CITY           SKY/WX    TMP DP  RH WIND       PRES   REMARKS
CHANUTE        SUNNY     88  72  58 SW16      29.98F
COFFEYVILLE    SUNNY     87  74  64 S15       29.98F HX  95
HUTCHINSON     SUNNY     91  65  41 S18G25    29.92F
MEDICINE LODGE   N/A     89  64  43 S12       29.94F
NEWTON         SUNNY     90  68  48 S21       29.95F
PARSONS        SUNNY     86  73  65 S12       30.00S
WICHITA INTL   SUNNY     90  69  50 S17       29.94F
WICHITA JABRA  SUNNY     91  68  46 MISG      29.94F HX  95
WICHITA MCCONL SUNNY     89  69  50 SW14      29.95F
WINFIELD       SUNNY     90  70  51 SW15      29.98F HX  95
$$

KSZ007>012-019>026-033>040-048>060-102>105-211600-
NORTHEAST KANSAS

CITY           SKY/WX    TMP DP  RH WIND       PRES   REMARKS
CONCORDIA      SUNNY     90  68  48 SW18      29.86F
EMPORIA        SUNNY     88  71  57 SW16G22   29.95F
LAWRENCE       SUNNY     88  74  63 S13       29.93F HX  96
MANHATTAN      SUNNY     93  70  46 S13G22    29.89F HX  99
MARYSVILLE     SUNNY     90  70  51 SW13G20   29.88S HX  95
OLATHE IND     SUNNY     87  72  60 S17       29.96S
OLATHE EXE     SUNNY     85  73  67 SW9       29.96F
SALINA         SUNNY     93  66  40 S23       29.89F HX  96
TOPEKA BILLARD SUNNY     88  73  61 SW9       29.91F HX  95
TOPEKA FORBES  SUNNY     89  74  60 SW14      29.93F HX  98
$$




USA.gov is the U.S. government's official web portal to all federal, state and local government web resources and services.